Location: Champignolles
(47.0543°N, 4.5663°E)
Time: 07:38:46
(UTC+00:00)

Cosmos 923 Rocket - Pass Details

Date: 16 April 2021
Orbit: 759 x 785 km, 74.0° (Epoch: 13 May)

Event Time Altitude Azimuth Distance (km) Brightness Sun altitude
Rises 02:22:12 0° 338° (NNW) 3,230 7.6 -22.5°
Reaches altitude 10° 02:24:35 10° 339° (NNW) 2,301 6.8 -22.3°
Maximum altitude 02:29:48 82° 67° (ENE) 776 4.0 -21.6°
Drops below altitude 10° 02:35:02 10° 156° (SSE) 2,296 6.3 -21.0°
Enters shadow 02:35:52 - 157° (SSE) 2,623 6.6 -20.9°
